This is the latest recevied weather packets stored in our database for station/object TF3VP-10. If no packets are shown the sender has not sent any weather packets the latest 10 day(s).
| Time | Temp. | Humidity | Pressure | Rain* | Wind** | Luminosity | Snow |
|---|---|---|---|---|---|---|---|
| 1778027748 | 0.56° C | 58% | 1035.3 hPa | - | - | - | - |
| 1778026848 | 0.56° C | 57% | 1035.3 hPa | - | - | - | - |
| 1778025948 | 0.56° C | 59% | 1035.1 hPa | - | - | - | - |
| 1778025048 | 1.11° C | 59% | 1035.3 hPa | - | - | - | - |
| 1778024148 | 1.11° C | 61% | 1035.5 hPa | - | - | - | - |
| 1778023248 | 1.11° C | 60% | 1035.5 hPa | - | - | - | - |
| 1778022348 | 1.11° C | 60% | 1035.3 hPa | - | - | - | - |
| 1778021448 | 1.11° C | 59% | 1035.7 hPa | - | - | - | - |
| 1778020548 | 1.67° C | 59% | 1035.4 hPa | - | - | - | - |
| 1778019648 | 1.67° C | 59% | 1035.5 hPa | - | - | - | - |
| 1778018747 | 1.67° C | 59% | 1035.2 hPa | - | - | - | - |
| 1778017847 | 1.67° C | 59% | 1035.5 hPa | - | - | - | - |
| 1778016947 | 1.67° C | 59% | 1035.6 hPa | - | - | - | - |
| 1778016049 | 1.11° C | 59% | 1035.4 hPa | - | - | - | - |
| 1778015148 | 1.67° C | 61% | 1035.6 hPa | - | - | - | - |
| 1778014247 | 2.22° C | 63% | 1035.6 hPa | - | - | - | - |
| 1778013347 | 2.78° C | 58% | 1035.5 hPa | - | - | - | - |
| 1778012447 | 2.78° C | 55% | 1035.5 hPa | - | - | - | - |
| 1778011548 | 2.78° C | 55% | 1035.4 hPa | - | - | - | - |
| 1778010648 | 3.33° C | 51% | 1035.4 hPa | - | - | - | - |
| 1778009748 | 3.33° C | 51% | 1035.5 hPa | - | - | - | - |
| 1778008847 | 3.33° C | 49% | 1035.6 hPa | - | - | - | - |
| 1778007948 | 3.33° C | 50% | 1035.6 hPa | - | - | - | - |
| 1778007048 | 3.33° C | 50% | 1035.6 hPa | - | - | - | - |
| 1778006148 | 3.33° C | 48% | 1035.7 hPa | - | - | - | - |
* Rain since midnight (hover to see other rain measurements)
** Current wind speed in m/s (hover to see current wind gust speed)